This demonstration page uses our WeatherBlox Daily Observations layout. Learn more.

Left ArrowRight Arrow

38.88101, -77.10428

Hourly Observations for January 26, 2015

Temp ( °F °C ) Dew Point ( °F °C ) Humidity (%) Winds ( mph kmh ) Pressure ( in mb ) Visibility ( mi km ) Precip ( " mm )
12:52 am 00:52 Cloudy 45 7.2 32 undefined 61 61 ESE 5 7 29.84 1011 10 16 N/A
1:52 am 01:52 Cloudy 44 6.7 33 0.6 65 65 NE 7 11 29.83 1010 10 16 N/A
2:52 am 02:52 Cloudy with Light Rain 42 5.6 34 1.1 73 73 NE 10 17 29.82 1010 10 16 N/A
3:52 am 03:52 Cloudy with Light Rain 42 5.6 35 1.7 76 76 ENE 9 15 29.81 1010 10 16 0.01 0.25
4:52 am 04:52 Cloudy with Light Rain 41 5 35 1.7 79 79 ENE 13 20 29.80 1009 5 8 0.02 0.51
5:01 am 05:01 Cloudy with Light Rain 41 5 36 2 81 81 ENE 14 22 29.80 1009 5 8 N/A
5:42 am 05:42 Cloudy with Light Rain 39 4 34 1 81 81 ENE 17 28 29.80 1009 5 8 N/A
5:52 am 05:52 Cloudy with Light Rain 40 4.4 34 1.1 79 79 ENE 15 24 29.79 1009 5 8 0.04 1.02
6:20 am 06:20 Cloudy with Light Rain 39 4 34 1 81 81 ENE 17 28 29.80 1009 5 8 N/A
6:52 am 06:52 Cloudy with Light Rain/Snow 38 3.3 33 0.6 83 83 ENE 14 22 29.81 1010 5 8 0.03 0.76
7:52 am 07:52 Cloudy with Light Rain/Snow 37 2.8 31 -0.6 79 79 ENE 13 20 29.82 1010 4 6 0.02 0.51
8:52 am 08:52 Cloudy with Light Snow 37 2.8 31 -0.6 79 79 NE 13 20 29.80 1009 4 6 0.01 0.25
9:07 am 09:07 Cloudy with Light Snow 37 3 30 -1 75 75 ENE 13 20 29.80 1009 5 8 N/A
9:27 am 09:27 Cloudy 37 3 30 -1 75 75 ENE 13 20 29.80 1009 9 14 N/A
9:52 am 09:52 Cloudy 37 2.8 31 -0.6 79 79 ENE 13 20 29.80 1009 10 16 N/A
10:10 am 10:10 Cloudy with Light Snow 37 3 30 -1 75 75 ENE 15 24 29.80 1009 5 8 N/A
10:52 am 10:52 Cloudy with Light Rain/Snow 36 2.2 31 -0.6 82 82 NE 13 20 29.80 1009 6 10 N/A
11:14 am 11:14 Cloudy with Light Snow 36 2 30 -1 81 81 NE 10 17 29.80 1009 3 4 N/A
11:35 am 11:35 Cloudy with Light Snow 36 2 30 -1 81 81 NNE 12 19 29.80 1009 4 6 0.03 0.76
11:52 am 11:52 Cloudy with Light Rain/Snow 35 1.7 29 -1.7 78 78 NE 15 24 29.78 1009 4 6 0.04 1.02
12:03 pm 12:03 Cloudy with Light Rain/Snow 36 2 28 -2 75 75 NE 14 22 29.77 1008 3 5 N/A
12:29 pm 12:29 Cloudy with Light Rain/Snow 36 2 28 -2 75 75 NNE 9 15 29.77 1008 7 11 0.01 0.25
12:41 pm 12:41 Cloudy with Light Rain/Snow 36 2 28 -2 75 75 NNE 14 22 29.74 1007 5 8 0.01 0.25
12:52 pm 12:52 Cloudy with Light Rain/Snow 35 1.7 29 -1.7 78 78 NNE 13 20 29.74 1007 4 6 0.01 0.25
1:52 pm 13:52 Cloudy 34 1.1 28 -2.2 79 79 NNE 15 24 29.72 1007 10 16 0.01 0.25
2:52 pm 14:52 Cloudy with Light Rain 34 1.1 29 -1.7 82 82 NNE 12 19 29.72 1006 10 16 N/A
3:24 pm 15:24 Cloudy with Light Rain 36 2 28 -2 75 75 NNE 10 17 29.71 1006 10 16 N/A
3:52 pm 15:52 Cloudy with Light Rain 35 1.7 29 -1.7 78 78 NNE 14 22 29.70 1006 10 16 N/A
4:31 pm 16:31 Cloudy 36 2 28 -2 75 75 N 13 20 29.71 1006 10 16 N/A
4:52 pm 16:52 Cloudy 35 1.7 28 -2.2 76 76 NNE 14 22 29.72 1007 10 16 N/A
5:07 pm 17:07 Cloudy with Light Snow 34 1 28 -2 81 81 NNE 14 22 29.74 1007 5 8 N/A
5:52 pm 17:52 Cloudy with Light Snow 34 1.1 28 -2.2 79 79 N 15 24 29.74 1007 6 10 N/A
6:52 pm 18:52 Cloudy with Light Snow 33 0.6 27 -2.8 78 78 N 15 24 29.73 1007 6 10 0.01 0.25
7:52 pm 19:52 Cloudy with Light Snow 33 0.6 27 -2.8 78 78 N 13 20 29.75 1007 7 11 0.01 0.25
8:26 pm 20:26 Cloudy with Light Snow 34 1 27 -3 75 75 NNW 13 20 29.77 1008 7 11 N/A
8:52 pm 20:52 Cloudy with Light Snow 32 undefined 26 -3.3 79 79 N 16 26 29.76 1008 6 10 N/A
9:05 pm 21:05 Cloudy with Light Snow 32 undefined 27 -3 80 80 NNW 13 20 29.77 1008 3 5 N/A
9:08 pm 21:08 Cloudy with Light Snow 30 -1 25 -4 80 80 NW 14 22 29.77 1008 3 5 N/A
9:18 pm 21:18 Cloudy with Light Snow 30 -1 25 -4 80 80 NW 15 24 29.77 1008 3 5 N/A
9:52 pm 21:52 Cloudy with Light Snow 30 -1.1 23 -5 75 75 NNW 16 26 29.76 1008 3 5 N/A
10:00 pm 22:00 Cloudy with Light Snow 30 -1 23 -5 75 75 NNW 15 24 29.77 1008 3 4 N/A
10:04 pm 22:04 Cloudy with Light Snow 30 -1 23 -5 75 75 NNW 17 28 29.77 1008 3 5 N/A
10:52 pm 22:52 Cloudy with Light Snow 29 -1.7 23 -5 78 78 NNW 15 24 29.76 1008 4 6 N/A
11:52 pm 23:52 Windy with Snow Likely 30 -1.1 23 -5 75 75 NNW 20 31 29.75 1008 5 8 N/A

Powered by AerisWeather